Torna al catalogo

STARLINK-5387

AttivoComunicazioniVLEO
NORAD 54842·PAYLOAD·🇺🇸 United States

Lanciato Dec 28, 2022 da Cape Canaveral Space Force Station

Loading…

Prossimi Passaggi (prossime 24 ore)

TLE

AggiornatoSource: CelesTrak SupGP

Epoca: Sep 15, 2026, 01:35 UTC

1 54842C 22177Y   26258.06645833  .00026001  00000+0  94197-3 0  2589
2 54842  43.0004 143.1694 0000946 248.4944 189.9061 15.27558341    14

Traccia STARLINK-5387 in tempo reale con AllMySat

Download on the App Store